Jefferson City, MO

12:21 AM CST on February 07, 2016 (GMT -0600)
Jefferson City Memorial

Weather History for KJEF - December, 2012

Change the Weather History Date:

Wednesday, December 12, 2012

  Actual Average (KCOU) Record (KCOU)
Temperature  
Mean Temperature 36 °F 33 °F  
Max Temperature 52 °F 42 °F 74 °F (1889)
Min Temperature 19 °F 24 °F -7 °F (1962)
Degree Days  
Heating Degree Days 30 32  
Month to date heating degree days 361  
Since 1 July heating degree days 1346  
Cooling Degree Days 0 0  
Month to date cooling degree days 0  
Year to date cooling degree days 1249  
Moisture  
Dew Point 17 °F    
Average Humidity 53    
Maximum Humidity 88    
Minimum Humidity 21    
Precipitation  
Precipitation 0.00 in 0.08 in 1.43 in (1923)
Month to date precipitation 1.07  
Year to date precipitation 41.25  
Snow  
Snow 0.00 in 0.10 in 4.00 in (1898)
Month to date snowfall 1.4  
Since 1 July snowfall 2.3  
Snow Depth -    
Sea Level Pressure  
Sea Level Pressure 30.24 in    
Wind  
Wind Speed 5 mph (SE)    
Max Wind Speed 12 mph    
Max Gust Speed -    
Visibility 10 miles    
Events      
T = Trace of Precipitation, MM = Missing Value Source: NWS Daily Summary

Daily Weather History Graph

Daily Weather History Graph

Search for Another Location

Airport or City:

Trip Planner

Search our weather history database for the weather conditions in past years. The results will help you decide how hot, cold, wet, or windy it might be!

Date:

Astronomy

Dec. 12, 2012 Rise Set
Actual Time 7:17 AM CST 4:47 PM CST
Civil Twilight 6:47 AM CST 5:17 PM CST
Nautical Twilight 6:14 AM CST 5:50 PM CST
Astronomical Twilight 5:42 AM CST 6:23 PM CST
Moon 6:22 AM CST (12/12) 4:25 PM CST (12/12)
Length of Visible Light 10h 29m
Length of Day
9h 30m
Waning Crescent, 1% of the Moon is Illuminated
Dec 12
Waning Crescent
Dec 13
New
Dec 19
First Quarter
Dec 28
Full
Jan 4
Last Quarter

Hourly Weather History & Observations

Time (CST) Temp. Windchill Dew Point Humidity Pressure Visibility Wind Dir Wind Speed Gust Speed Precip Events Conditions
12:53 AM 23.0 °F 17.0 °F 19.9 °F 88% 30.20 in 10.0 mi ESE 4.6 mph - N/A   Clear
1:53 AM 23.0 °F 17.0 °F 19.0 °F 85% 30.21 in 10.0 mi East 4.6 mph - N/A   Clear
2:53 AM 21.9 °F 14.5 °F 18.0 °F 85% 30.22 in 10.0 mi SE 5.8 mph - N/A   Clear
3:53 AM 21.9 °F 15.7 °F 18.0 °F 85% 30.21 in 10.0 mi SE 4.6 mph - N/A   Clear
4:53 AM 19.0 °F 12.3 °F 15.1 °F 85% 30.22 in 10.0 mi ESE 4.6 mph - N/A   Clear
5:53 AM 19.0 °F - 15.1 °F 85% 30.24 in 10.0 mi Calm Calm - N/A   Clear
6:53 AM 19.9 °F 14.9 °F 16.0 °F 85% 30.26 in 10.0 mi ESE 3.5 mph - N/A   Clear
7:53 AM 21.0 °F 13.4 °F 17.1 °F 85% 30.27 in 10.0 mi ESE 5.8 mph - N/A   Clear
8:53 AM 28.0 °F 21.7 °F 21.0 °F 75% 30.29 in 10.0 mi ESE 5.8 mph - N/A   Clear
9:53 AM 34.0 °F 29.8 °F 24.1 °F 67% 30.30 in 10.0 mi ESE 4.6 mph - N/A   Clear
10:53 AM 42.1 °F - 19.9 °F 41% 30.29 in 10.0 mi Calm Calm - N/A   Clear
11:53 AM 46.9 °F - 18.0 °F 32% 30.27 in 10.0 mi Variable 4.6 mph - N/A   Clear
12:53 PM 50.0 °F - 17.1 °F 27% 30.25 in 10.0 mi South 11.5 mph - N/A   Clear
1:53 PM 51.1 °F - 14.0 °F 23% 30.22 in 8.0 mi South 8.1 mph - N/A   Clear
2:53 PM 52.0 °F - 12.9 °F 21% 30.20 in 10.0 mi SSW 9.2 mph - N/A   Clear
3:53 PM 52.0 °F - 12.9 °F 21% 30.21 in 10.0 mi South 10.4 mph - N/A   Clear
4:53 PM 48.9 °F - 15.1 °F 26% 30.21 in 10.0 mi SSE 5.8 mph - N/A   Clear
5:53 PM 46.0 °F 42.5 °F 15.1 °F 29% 30.21 in 10.0 mi ESE 6.9 mph - N/A   Clear
6:53 PM 44.1 °F 40.8 °F 15.1 °F 31% 30.22 in 10.0 mi SE 5.8 mph - N/A   Clear
7:53 PM 42.1 °F 36.6 °F 15.1 °F 34% 30.22 in 10.0 mi ESE 9.2 mph - N/A   Clear
8:53 PM 41.0 °F 35.2 °F 16.0 °F 36% 30.21 in 10.0 mi ESE 9.2 mph - N/A   Clear
9:53 PM 39.9 °F 35.1 °F 16.0 °F 38% 30.23 in 10.0 mi ESE 6.9 mph - N/A   Clear
10:53 PM 39.0 °F 35.7 °F 17.1 °F 41% 30.23 in 10.0 mi East 4.6 mph - N/A   Clear
11:53 PM 39.9 °F 35.8 °F 17.1 °F 40% 30.25 in 10.0 mi East 5.8 mph - N/A   Clear